Location: Borovka
(49.7741°N, 14.5280°E)
Time: 07:20:18
(UTC+00:00)

Cosmos 2034 Rocket - Pass Details

Date: 17 November 2025
Orbit: 958 x 998 km, 82.9° (Epoch: 12 December)

Event Time Altitude Azimuth Distance (km) Brightness Sun altitude
Rises 17:29:24 0° 178° (S) 3,639 7.0 -21.3°
Reaches altitude 10° 17:31:54 10° 176° (S) 2,701 6.3 -21.7°
Maximum altitude 17:38:01 69° 95° (E) 1,044 3.9 -22.7°
Drops below altitude 10° 17:44:16 10° 14° (NNE) 2,747 6.2 -23.7°
Sets 17:46:49 0° 12° (NNE) 3,705 6.9 -24.1°
